TimePDT,TemperatureF,Dew PointF,Humidity,Sea Level PressureIn,VisibilityMPH,Wind Direction,Wind SpeedMPH,Gust SpeedMPH,PrecipitationIn,Events,Conditions,WindDirDegrees,DateUTC
12:15 AM,59.0,59.0,100,30.06,10.0,Calm,Calm,-,N/A,,Unknown,0,2013-05-12 07:15:00
12:35 AM,59.0,59.0,100,30.07,10.0,Calm,Calm,-,N/A,,Unknown,0,2013-05-12 07:35:00
12:55 AM,57.2,57.2,100,30.07,10.0,Calm,Calm,-,N/A,,Unknown,0,2013-05-12 07:55:00
1:15 AM,57.2,57.2,100,30.07,10.0,Calm,Calm,-,N/A,,Unknown,0,2013-05-12 08:15:00
1:55 AM,59.0,59.0,100,30.08,10.0,Calm,Calm,-,N/A,Rain,Light Rain,0,2013-05-12 08:55:00
2:15 AM,59.0,59.0,100,30.07,10.0,Calm,Calm,-,N/A,,Unknown,0,2013-05-12 09:15:00
2:35 AM,59.0,59.0,100,30.08,10.0,Calm,Calm,-,N/A,,Unknown,0,2013-05-12 09:35:00
2:55 AM,59.0,59.0,100,30.08,10.0,Calm,Calm,-,N/A,,Unknown,0,2013-05-12 09:55:00
3:15 AM,59.0,59.0,100,30.07,10.0,Calm,Calm,-,N/A,,Unknown,0,2013-05-12 10:15:00
3:35 AM,59.0,59.0,100,30.07,10.0,Calm,Calm,-,N/A,,Unknown,0,2013-05-12 10:35:00
3:55 AM,59.0,59.0,100,30.08,10.0,Calm,Calm,-,N/A,,Unknown,0,2013-05-12 10:55:00
4:15 AM,59.0,59.0,100,30.08,4.0,Calm,Calm,-,N/A,Rain,Light Rain,0,2013-05-12 11:15:00
4:35 AM,59.0,59.0,100,30.09,3.0,Calm,Calm,-,N/A,Rain,Light Rain,0,2013-05-12 11:35:00
4:55 AM,59.0,59.0,100,30.08,10.0,Calm,Calm,-,N/A,,Unknown,0,2013-05-12 11:55:00
5:15 AM,59.0,59.0,100,30.08,10.0,Calm,Calm,-,N/A,,Unknown,0,2013-05-12 12:15:00
5:35 AM,59.0,59.0,100,30.09,3.0,Calm,Calm,-,0.03,Rain,Light Rain,0,2013-05-12 12:35:00
5:55 AM,57.2,57.2,100,30.09,5.0,Calm,Calm,-,0.04,Rain,Light Rain,0,2013-05-12 12:55:00
6:15 AM,57.2,57.2,100,30.09,10.0,Calm,Calm,-,N/A,,Unknown,0,2013-05-12 13:15:00
6:35 AM,57.2,57.2,100,30.09,10.0,Calm,Calm,-,N/A,,Unknown,0,2013-05-12 13:35:00
6:55 AM,57.2,57.2,100,30.09,10.0,Calm,Calm,-,N/A,,Unknown,0,2013-05-12 13:55:00
7:15 AM,57.2,57.2,100,30.09,10.0,Calm,Calm,-,N/A,,Unknown,0,2013-05-12 14:15:00
7:35 AM,59.0,59.0,100,30.09,10.0,Calm,Calm,-,N/A,,Unknown,0,2013-05-12 14:35:00
7:55 AM,59.0,59.0,100,30.10,10.0,Calm,Calm,-,N/A,,Unknown,0,2013-05-12 14:55:00
8:15 AM,59.0,59.0,100,30.10,10.0,Calm,Calm,-,N/A,,Unknown,0,2013-05-12 15:15:00
8:35 AM,60.8,60.8,100,30.09,10.0,Calm,Calm,-,N/A,,Unknown,0,2013-05-12 15:35:00
8:55 AM,62.6,62.6,100,30.11,10.0,Calm,Calm,-,N/A,,Unknown,0,2013-05-12 15:55:00
9:15 AM,62.6,62.6,100,30.12,10.0,Calm,Calm,-,N/A,,Unknown,0,2013-05-12 16:15:00
9:35 AM,59.0,59.0,100,30.12,10.0,NW,4.6,-,N/A,,Unknown,320,2013-05-12 16:35:00
9:55 AM,59.0,59.0,100,30.13,10.0,Calm,Calm,-,N/A,,Unknown,0,2013-05-12 16:55:00
10:15 AM,60.8,57.2,88,30.12,10.0,Calm,Calm,-,N/A,,Unknown,0,2013-05-12 17:15:00
10:35 AM,62.6,59.0,88,30.12,10.0,Calm,Calm,-,N/A,,Unknown,0,2013-05-12 17:35:00
10:55 AM,62.6,59.0,88,30.11,10.0,Calm,Calm,-,N/A,,Unknown,0,2013-05-12 17:55:00
11:15 AM,64.4,59.0,83,30.12,10.0,Calm,Calm,-,N/A,,Unknown,0,2013-05-12 18:15:00
11:35 AM,64.4,59.0,83,30.11,10.0,Calm,Calm,-,N/A,,Unknown,0,2013-05-12 18:35:00
11:55 AM,64.4,59.0,83,30.11,10.0,Calm,Calm,-,N/A,,Unknown,0,2013-05-12 18:55:00
12:15 PM,66.2,59.0,78,30.12,10.0,Calm,Calm,-,N/A,,Unknown,0,2013-05-12 19:15:00
12:55 PM,66.2,59.0,78,30.11,10.0,Calm,Calm,-,N/A,,Unknown,0,2013-05-12 19:55:00
1:15 PM,66.2,59.0,78,30.12,10.0,Calm,Calm,-,N/A,,Unknown,0,2013-05-12 20:15:00
1:35 PM,66.2,59.0,78,30.11,10.0,Calm,Calm,-,N/A,,Unknown,0,2013-05-12 20:35:00
1:55 PM,68.0,57.2,68,30.11,10.0,Calm,Calm,-,N/A,,Unknown,0,2013-05-12 20:55:00
2:15 PM,68.0,57.2,68,30.11,10.0,Calm,Calm,-,N/A,,Unknown,0,2013-05-12 21:15:00
2:35 PM,71.6,53.6,53,30.10,10.0,Calm,Calm,-,N/A,,Unknown,0,2013-05-12 21:35:00
2:55 PM,71.6,53.6,53,30.10,10.0,West,6.9,-,N/A,,Unknown,260,2013-05-12 21:55:00
3:35 PM,69.8,50.0,49,30.08,10.0,Calm,Calm,-,N/A,,Unknown,0,2013-05-12 22:35:00
3:55 PM,71.6,50.0,46,30.08,10.0,Calm,Calm,-,N/A,,Unknown,0,2013-05-12 22:55:00
4:15 PM,71.6,50.0,46,30.07,10.0,Calm,Calm,-,N/A,,Unknown,0,2013-05-12 23:15:00
4:35 PM,69.8,50.0,49,30.06,10.0,SW,3.5,-,N/A,,Unknown,230,2013-05-12 23:35:00
4:55 PM,69.8,53.6,56,30.06,10.0,Calm,Calm,-,N/A,,Unknown,0,2013-05-12 23:55:00
5:15 PM,68.0,57.2,68,30.06,10.0,Calm,Calm,-,N/A,,Unknown,0,2013-05-13 00:15:00
5:35 PM,66.2,57.2,73,30.06,10.0,Calm,Calm,-,N/A,,Unknown,0,2013-05-13 00:35:00
5:55 PM,66.2,57.2,73,30.06,10.0,Calm,Calm,-,N/A,,Unknown,0,2013-05-13 00:55:00
6:15 PM,64.4,57.2,77,30.06,10.0,Calm,Calm,-,N/A,,Unknown,0,2013-05-13 01:15:00
6:35 PM,64.4,57.2,77,30.06,10.0,Calm,Calm,-,N/A,,Unknown,0,2013-05-13 01:35:00
7:15 PM,62.6,57.2,82,30.05,10.0,Calm,Calm,-,N/A,,Unknown,0,2013-05-13 02:15:00
7:35 PM,62.6,59.0,88,30.05,4.0,Calm,Calm,-,N/A,Rain,Light Rain,0,2013-05-13 02:35:00
7:55 PM,60.8,60.8,100,30.04,7.0,Calm,Calm,-,0.01,Rain,Light Rain,0,2013-05-13 02:55:00
8:15 PM,59.0,59.0,100,30.04,10.0,Calm,Calm,-,N/A,,Unknown,0,2013-05-13 03:15:00
8:35 PM,59.0,59.0,100,30.05,10.0,Calm,Calm,-,N/A,Rain,Light Rain,0,2013-05-13 03:35:00
8:55 PM,59.0,59.0,100,30.05,5.0,Calm,Calm,-,N/A,Rain,Light Rain,0,2013-05-13 03:55:00
9:15 PM,59.0,59.0,100,30.06,5.0,Calm,Calm,-,0.02,Rain,Light Rain,0,2013-05-13 04:15:00
9:35 PM,57.2,57.2,100,30.07,5.0,Calm,Calm,-,0.03,Rain,Light Rain,0,2013-05-13 04:35:00
9:55 PM,57.2,57.2,100,30.07,3.0,Calm,Calm,-,0.07,Rain,Light Rain,0,2013-05-13 04:55:00
10:15 PM,57.2,57.2,100,30.08,4.0,West,3.5,-,0.03,Rain,Light Rain,270,2013-05-13 05:15:00
10:35 PM,57.2,57.2,100,30.08,3.0,West,3.5,-,0.05,Rain,Light Rain,270,2013-05-13 05:35:00
10:55 PM,57.2,57.2,100,30.08,2.5,Calm,Calm,-,0.07,Rain,Light Rain,0,2013-05-13 05:55:00
11:15 PM,57.2,57.2,100,30.07,2.0,Calm,Calm,-,0.01,Rain,Light Rain,0,2013-05-13 06:15:00
11:35 PM,57.2,57.2,100,30.07,3.0,Calm,Calm,-,0.03,Rain,Light Rain,0,2013-05-13 06:35:00
11:55 PM,57.2,57.2,100,30.08,2.5,Calm,Calm,-,0.04,Rain,Light Rain,0,2013-05-13 06:55:00